| time (UTC) | temp F | wind direction | speed MPH | gust MPH | rain 1hr in | rain 24hr in | rain mn in | humidity % | barometer mb |
| 20260505124528 | 69 | 162 | 4.0 | 10.0 | 0.00 | 0.00 | 0.00 | 87 | 1007.2 |
| 20260505123109 | 69 | 159 | 1.0 | 11.0 | 0.00 | 0.00 | 0.00 | 87 | 1007.1 |
| 20260505121513 | 69 | 161 | 3.0 | 11.0 | 0.00 | 0.00 | 0.00 | 87 | 1006.8 |
| 20260505120029 | 69 | 167 | 4.0 | 11.0 | 0.00 | 0.00 | 0.00 | 87 | 1006.7 |
| 20260505114609 | 69 | 150 | 6.0 | 11.0 | 0.00 | 0.00 | 0.00 | 87 | 1006.5 |
| 20260505113105 | 69 | 162 | 3.0 | 8.0 | 0.00 | 0.00 | 0.00 | 87 | 1006.4 |
| 20260505111520 | 69 | 146 | 4.0 | 12.0 | 0.00 | 0.00 | 0.00 | 87 | 1006.5 |
| 20260505101550 | 69 | 176 | 4.0 | 12.0 | 0.00 | 0.00 | 0.00 | 87 | 1006.5 |
| 20260505100025 | 69 | 180 | 4.0 | 11.0 | 0.00 | 0.00 | 0.00 | 87 | 1006.7 |
| 20260505094547 | 68 | 179 | 4.0 | 11.0 | 0.00 | 0.00 | 0.00 | 87 | 1006.6 |
| 20260505093059 | 68 | 148 | 2.0 | 10.0 | 0.00 | 0.00 | 0.00 | 87 | 1006.7 |
| 20260505091512 | 68 | 141 | 6.0 | 11.0 | 0.00 | 0.00 | 0.00 | 87 | 1006.6 |
| 20260505090034 | 68 | 168 | 3.0 | 7.0 | 0.00 | 0.00 | 0.00 | 87 | 1006.9 |
| 20260505084548 | 68 | 179 | 3.0 | 9.0 | 0.00 | 0.00 | 0.00 | 87 | 1006.9 |
| 20260505083012 | 68 | 177 | 3.0 | 7.0 | 0.00 | 0.00 | 0.00 | 87 | 1007.4 |
| 20260505081540 | 68 | 172 | 2.0 | 7.0 | 0.00 | 0.00 | 0.00 | 87 | 1007.5 |
| 20260505080057 | 68 | 176 | 2.0 | 5.0 | 0.00 | 0.00 | 0.00 | 87 | 1007.5 |
| 20260505074520 | 68 | 199 | 3.0 | 4.0 | 0.00 | 0.00 | 0.00 | 87 | 1007.7 |
| 20260505073030 | 68 | 151 | 2.0 | 5.0 | 0.00 | 0.00 | 0.00 | 87 | 1008.0 |
| 20260505071548 | 68 | 167 | 1.0 | 5.0 | 0.00 | 0.00 | 0.00 | 87 | 1008.2 |
| 20260505070003 | 68 | 152 | 2.0 | 8.0 | 0.00 | 0.00 | 0.00 | 87 | 1008.3 |
| 20260505064523 | 68 | 156 | 2.0 | 8.0 | 0.00 | 0.00 | 0.00 | 87 | 1008.3 |
| 20260505063041 | 68 | 176 | 4.0 | 8.0 | 0.00 | 0.00 | 0.00 | 87 | 1008.4 |
| 20260505061557 | 68 | 182 | 3.0 | 8.0 | 0.00 | 0.00 | 0.00 | 87 | 1008.6 |
| 20260505060009 | 68 | 179 | 4.0 | 9.0 | 0.00 | 0.00 | 0.00 | 86 | 1008.7 |
| 20260505054527 | 69 | 156 | 5.0 | 10.0 | 0.00 | 0.00 | 0.00 | 86 | 1008.8 |
| 20260505053043 | 69 | 172 | 5.0 | 11.0 | 0.00 | 0.00 | 0.00 | 86 | 1008.7 |
| 20260505051513 | 69 | 178 | 4.0 | 10.0 | 0.00 | 0.00 | 0.00 | 85 | 1008.7 |
| 20260505041529 | 71 | 162 | 6.0 | 10.0 | 0.00 | 0.00 | 0.00 | 83 | 1008.8 |
| 20260505040041 | 71 | 140 | 5.0 | 11.0 | 0.00 | 0.00 | 0.00 | 83 | 1008.8 |
| 20260505034600 | 72 | 153 | 4.0 | 14.0 | 0.00 | 0.00 | 0.00 | 82 | 1008.6 |
| 20260505033016 | 72 | 163 | 6.0 | 14.0 | 0.00 | 0.00 | 0.00 | 81 | 1008.7 |
| 20260505031541 | 73 | 46 | 5.0 | 11.0 | 0.00 | 0.00 | 0.00 | 81 | 1008.9 |
| 20260505030008 | 73 | 195 | 5.0 | 11.0 | 0.00 | 0.00 | 0.00 | 80 | 1008.8 |
| 20260505024544 | 73 | 148 | 6.0 | 9.0 | 0.00 | 0.00 | 0.00 | 80 | 1008.5 |
| 20260505023058 | 74 | 179 | 5.0 | 12.0 | 0.00 | 0.00 | 0.00 | 79 | 1008.4 |
| 20260505021506 | 74 | 178 | 5.0 | 9.0 | 0.00 | 0.00 | 0.00 | 78 | 1008.3 |
| 20260505020024 | 74 | 136 | 3.0 | 10.0 | 0.00 | 0.00 | 0.00 | 77 | 1008.1 |
| 20260505014544 | 75 | 154 | 3.0 | 9.0 | 0.00 | 0.00 | 0.00 | 77 | 1007.9 |
| 20260505013102 | 75 | 147 | 4.0 | 10.0 | 0.00 | 0.00 | 0.00 | 76 | 1008.0 |
| 20260505011515 | 76 | 203 | 2.0 | 7.0 | 0.00 | 0.00 | 0.00 | 74 | 1007.9 |
| 20260505010028 | 77 | 121 | 3.0 | 9.0 | 0.00 | 0.00 | 0.00 | 72 | 1007.7 |
| 20260505004547 | 78 | 161 | 5.0 | 9.0 | 0.00 | 0.00 | 0.00 | 71 | 1007.5 |
| 20260505003100 | 78 | 193 | 4.0 | 11.0 | 0.00 | 0.00 | 0.00 | 70 | 1007.7 |
| 20260505001535 | 79 | 138 | 4.0 | 11.0 | 0.00 | 0.00 | 0.00 | 68 | 1007.8 |
| 20260505000107 | 79 | 172 | 6.0 | 11.0 | 0.00 | 0.00 | 0.00 | 68 | 1008.0 |
| 20260504234511 | 79 | 154 | 7.0 | 11.0 | 0.00 | 0.00 | 0.00 | 68 | 1008.1 |
| 20260504233030 | 80 | 160 | 8.0 | 13.0 | 0.00 | 0.00 | 0.00 | 66 | 1008.2 |
| 20260504231558 | 81 | 149 | 3.0 | 12.0 | 0.00 | 0.00 | 0.00 | 62 | 1008.5 |
| 20260504230004 | 81 | 158 | 5.0 | 9.0 | 0.00 | 0.00 | 0.00 | 62 | 1008.7 |
| 20260504224522 | 80 | 171 | 6.0 | 11.0 | 0.00 | 0.00 | 0.00 | 62 | 1008.7 |
| 20260504223038 | 80 | 154 | 5.0 | 13.0 | 0.00 | 0.00 | 0.00 | 61 | 1008.7 |
| 20260504221657 | 81 | 138 | 5.0 | 14.0 | 0.00 | 0.00 | 0.00 | 61 | 1008.8 |
| 20260504220012 | 81 | 168 | 5.0 | 15.0 | 0.00 | 0.00 | 0.00 | 61 | 1008.8 |
| 20260504214532 | 81 | 139 | 6.0 | 13.0 | 0.00 | 0.00 | 0.00 | 60 | 1008.9 |
| 20260504213046 | 80 | 158 | 5.0 | 10.0 | 0.00 | 0.00 | 0.00 | 61 | 1009.4 |
| 20260504211603 | 80 | 165 | 6.0 | 11.0 | 0.00 | 0.00 | 0.00 | 61 | 1009.7 |
| 20260504210013 | 80 | 161 | 6.0 | 12.0 | 0.00 | 0.00 | 0.00 | 61 | 1009.9 |
| 20260504204501 | 79 | 173 | 6.0 | 12.0 | 0.00 | 0.00 | 0.00 | 63 | 1010.1 |
| 20260504203032 | 79 | 180 | 5.0 | 11.0 | 0.00 | 0.00 | 0.00 | 63 | 1010.4 |
| 20260504201547 | 79 | 153 | 5.0 | 11.0 | 0.00 | 0.00 | 0.00 | 62 | 1010.6 |
| 20260504194525 | 80 | 162 | 5.0 | 11.0 | 0.00 | 0.00 | 0.00 | 63 | 1010.9 |
| 20260504193031 | 79 | 190 | 4.0 | 13.0 | 0.00 | 0.00 | 0.00 | 63 | 1011.1 |
| 20260504191556 | 79 | 148 | 4.0 | 18.0 | 0.00 | 0.00 | 0.00 | 62 | 1011.2 |
| 20260504190009 | 80 | 172 | 6.0 | 11.0 | 0.00 | 0.00 | 0.00 | 61 | 1011.3 |
| 20260504184536 | 80 | 129 | 5.0 | 14.0 | 0.00 | 0.00 | 0.00 | 63 | 1011.9 |
| 20260504183044 | 78 | 156 | 4.0 | 11.0 | 0.00 | 0.00 | 0.00 | 67 | 1011.8 |
| 20260504181528 | 78 | 162 | 4.0 | 11.0 | 0.00 | 0.00 | 0.00 | 65 | 1012.0 |
| 20260504180115 | 78 | 169 | 4.0 | 15.0 | 0.00 | 0.00 | 0.00 | 65 | 1012.3 |
| 20260504174600 | 77 | 162 | 7.0 | 14.0 | 0.00 | 0.00 | 0.00 | 65 | 1012.5 |
| 20260504173025 | 78 | 163 | 6.0 | 13.0 | 0.00 | 0.00 | 0.00 | 65 | 1012.7 |
| 20260504171544 | 77 | 152 | 5.0 | 12.0 | 0.00 | 0.00 | 0.00 | 66 | 1012.9 |
| 20260504170104 | 77 | 174 | 6.0 | 15.0 | 0.00 | 0.00 | 0.00 | 67 | 1013.0 |